{"data":{"norad_id":68560,"intl_designator":"2026-070U","name":"STARLINK-37291","alt_names":[],"object_type":"PAYLOAD","status":"ACTIVE","operator":null,"country":"US","launch_date":"2026-04-02","launch_site_code":"AFETR","launch_vehicle":null,"mission":null,"orbit_class":"UNKNOWN","rcs_meters":null,"size_class":null,"mass_kg":null,"dimensions":null,"purposes":["comms"],"wikipedia_slug":null,"has_3d_model":false,"image_url":null,"decayed_at":null,"tle_current":{"epoch":"2026-09-19T06:53:30.429600Z","epoch_age_seconds":150094,"freshness":"FRESH","line1":"1 68560U 26070U   26262.28715775  .00013662  00000+0  41458-3 0  9992","line2":"2 68560  53.1577 179.2088 0001110  96.6490 263.4638 15.34411345 26255","mean_motion":15.34411345,"eccentricity":0.000111,"inclination_deg":53.1577,"raan_deg":179.2088,"arg_perigee_deg":96.649,"mean_anomaly_deg":263.4638,"bstar":0.00041458,"rev_number":2625,"period_min":93.847064197769,"perigee_km":461.91019116022,"apogee_km":463.42885020781,"semimajor_km":6840.806520684,"source":"CELESTRAK","updated_at":"2026-09-20T09:00:43.936803Z"}}}